DELTA 1 DEB, 27720

Orbit data source: Space-Track

DELTA 1 DEB, 27720 is space debris in SSO originally from a launch on Fri, 22 Jan 1965 UTC launched from the Air Force Eastern Test Range (AFETR). Debris objects in space refer to the collection of defunct objects orbiting the Earth. Examples of debris include non-operational satellites, rocket bodies, and fragments generated from explosions, collisions, or faulty payload assembly.

Loading next visibility...
Identifier
27720, 1965-004E
Orbit
SSO
Country
Flag of USUS
Related business
Manufacturer
Unknown
Mission
Spacecraft
Bus & Motor
Unknown
Mass
Unknown
Launch date (UTC)
1965-01-22 (61 years ago)
Launch vehicle
Unknown
Launch site
Air Force Eastern Test Range (AFETR)
Object type
Payload
Rocket body
Debris
Shape & HBR
Unknown shape, 0.1 m
Radar Cross Section
Small (<0.1 m²)

Expand to show TLE details & history
Last TLE update: 15 hours ago

TLE from 15 hours ago
0 DELTA 1 DEB
1 27720U 65004E   26130.98296453  .00000280  00000-0  35991-3 0  9991
2 27720  96.5004  36.2531 1168368  87.4654 285.9343 12.09253591510716
Epoch: 2026-05-10T23:35Z
TLE epoch observation values (Epoch: 2026-05-10T23:35:28.135Z)
Latitude
0.00001°
Longitude
173.60764°
Altitude
1,490.539 km
Speed
7.186 km/s
True Right ascension
02h 25m 00s
True Declination
0° 00' 00"
Sunlit
Object was in daylight at epoch
Visualization orbit readout
Latitude
Unknown
Longitude
Unknown
Altitude
Unknown
Speed
Unknown
Apparent Right ascension
Unknown
Apparent Declination
Unknown
Sunlit
N/A
Visualization observer readout
Local Sidereal Time
22:55:53
Azimuth
Unknown
Elevation
Unknown
Doppler factor
Unknown
Orbital elements
Apogee altitude
2,573.468 km
Perigee altitude
700.541 km
Semi-major axis
8,015.141 km
Eccentricity
0.11684
Inclination
96.5004°
RAAN
36.2531°
Arg. of periapsis
87.4654°
True anomaly
272.64416°
Mean anomaly
285.9343°
Eccentric anomaly
279.32858°
Mean motion
3.02466 °/min
Orbital period
119.02 mins
BSTAR
0.00035991
Loading maneuver chart data...
Computing Atmospheric mass density...
Loading historical data...
Loading historical data...
Loading historical data...
Loading historical data...
Loading historical data...
Loading historical data...
Loading historical data...
Other satellites on launch #4 in the year 1965 (1965-01-22 UTC)

Documentation

Showing up to 5 results
|